Temp_Advection
nan nan nan nan nan nan nan nan nan nan nan nan nan nan nan nan nan nan nan nan nan nan nan nan nan nan nan
nan 0 0 -0 -0 -0 -0 -0 -0 -0 -0 -0 -0 -0 -0 -0 -0 -0 -0 -0 -0 -0 -0 -0 -0 -0 nan
nan 0 -0 -0 -0 -0 -0 -0 -0 -0 -0 -0 -0 -0 -0 -0 -0 -0 0 0 -0 -0 -0 -0 -0 -0 nan
nan 0 -0 -0 -0 -0 -0 -0 -0 -0 -0 -0 -0 -0 -0 -0 -0 -0 -0 -0 0 -0 -0 -0 -0 -0 nan
nan 0 0 -0 -0 -0 -0 -0 -0 -0 -0 -0 -0 -0 -0 -0 -0 -0 -0 -0 -0 0 0 -0 -0 -0 nan
nan 0 0 0 -0 -0 -0 -0 -0 -0 -1 -0 -0 -1 -0 -0 -0 -0 -0 -0 -0 -0 -0 -0 -0 -0 nan
nan 0 0 0 0 -0 0 0 -0 -0 -0 -1 -0 0 -0 0 -0 -1 -0 -0 -0 -0 -0 -0 -0 -0 nan
nan 0 0 0 0 0 0 -0 -0 0 0 -0 -1 0 0 0 0 -0 -1 -0 -0 -0 -0 -0 -0 -0 nan
nan 0 0 0 1 -0 -0 -0 -0 -0 0 0 -0 -0 -0 -0 0 0 -0 -0 -0 -0 -0 -0 -0 -0 nan
nan 0 -0 -0 0 0 -0 -0 -0 -0 -0 0 0 0 -0 -0 0 -0 -0 -0 -0 -1 -0 -0 -0 -0 nan
nan 0 0 0 -0 0 0 0 -0 -0 -0 -0 0 -0 -0 -0 -0 -0 -0 -0 -0 -0 -0 -0 -0 -0 nan
nan -0 -0 0 0 0 0 0 0 -0 -0 -0 0 -0 -0 -0 0 0 -0 -0 -0 -0 -0 -0 -0 -0 nan
nan -0 -0 -0 -0 -0 -0 -0 -0 0 -0 -0 -0 0 0 -0 -0 0 -0 -1 -0 -0 -0 -0 -0 -0 nan
nan -0 -0 -0 -0 -0 -0 -0 -0 -0 -0 -0 -0 -0 0 0 -0 0 0 -1 -1 -0 0 -0 -0 -0 nan
nan -0 -0 -0 -0 -0 -0 -0 -0 -0 -0 -0 -0 -0 0 0 0 -0 -0 -0 -0 -0 -0 -0 -0 -0 nan
nan -0 -0 -0 -0 -0 -0 -0 -0 -0 -1 -0 -0 0 -0 -1 -0 -0 0 0 -0 -0 0 -0 -1 -1 nan
nan nan nan nan nan nan nan nan nan nan nan nan nan nan nan nan nan nan nan nan nan nan nan nan nan nan nan
Wind_Speed
7 7 8 8 9 9 10 11 12 12 12 13 13 13 13 14 14 14 15 16 15 15 14 13 13 14 12
6 7 8 9 10 11 11 11 12 13 12 12 13 12 13 14 14 15 15 16 15 15 15 15 14 14 14
6 6 8 9 9 10 11 11 12 13 13 13 13 13 13 14 15 16 15 17 18 17 17 16 16 16 15
6 6 7 11 10 10 10 12 12 13 14 13 13 14 14 15 16 16 17 17 18 19 19 18 18 17 17
5 6 7 8 8 10 13 13 13 13 13 12 14 14 14 17 17 17 17 17 18 19 19 19 19 19 20
7 7 8 9 11 12 14 14 13 12 15 14 15 18 17 17 18 16 17 18 18 19 19 20 21 21 21
12 12 13 13 13 14 13 13 16 17 18 23 17 16 15 13 16 18 18 19 20 21 21 22 23 23 24
15 16 17 16 17 18 19 21 22 22 17 22 19 16 13 16 16 18 18 18 19 19 20 21 23 25 26
17 17 19 20 19 19 20 20 22 22 16 20 23 21 16 19 21 18 19 16 17 19 20 22 23 24 26
16 16 17 19 18 19 21 24 25 26 21 19 20 18 21 21 16 17 17 18 18 21 21 21 21 23 24
19 19 17 17 18 17 18 19 22 27 24 21 24 25 27 29 28 24 21 22 22 23 23 23 21 21 24
19 19 17 20 19 19 20 22 24 26 26 26 28 27 28 30 30 27 27 26 25 26 26 26 25 24 23
21 22 23 22 22 22 23 25 27 28 27 27 29 31 31 35 36 33 30 28 27 28 27 28 29 28 29
20 21 22 23 24 24 26 27 28 29 28 25 23 25 30 32 32 32 30 31 30 30 30 31 30 29 29
20 22 22 23 23 24 25 27 29 30 29 28 28 30 32 33 35 36 35 35 33 31 30 31 32 30 29
25 25 27 28 29 28 27 28 30 30 31 30 29 29 31 35 34 35 34 34 30 27 28 29 31 30 30
27 27 27 26 24 26 28 29 31 31 30 29 29 29 30 32 32 29 29 27 26 28 29 31 33 33 31
Wind_Direction
257 262 263 270 277 283 289 292 292 290 291 291 289 287 286 283 283 285 287 285 293 295 294 294 294 291 294
252 260 266 279 286 291 295 295 296 297 295 293 292 289 282 280 281 279 281 290 290 290 293 296 294 292 289
255 264 273 280 285 292 296 297 296 292 293 294 293 291 289 285 282 283 282 282 286 289 289 291 293 293 292
262 274 281 286 294 295 292 300 299 298 298 294 293 291 287 284 282 284 283 283 285 288 290 290 290 292 291
272 282 289 294 297 284 294 295 296 301 299 297 296 292 293 292 288 285 285 284 285 286 288 290 291 289 291
268 269 276 283 284 284 290 295 298 292 294 287 280 291 291 285 285 287 288 288 287 287 288 290 292 292 290
278 276 274 279 283 283 280 279 281 285 283 288 293 285 292 282 282 286 285 286 286 286 286 286 286 286 287
284 285 284 280 272 275 277 279 280 284 289 287 292 287 282 279 283 285 289 286 285 286 287 288 288 287 286
282 278 277 277 277 282 281 285 288 291 284 274 286 289 273 272 276 280 278 284 282 288 290 290 288 288 287
283 281 281 284 281 268 265 266 272 275 273 273 275 283 286 283 267 269 281 287 293 299 300 297 295 292 292
290 293 296 292 292 287 284 278 274 271 275 271 273 277 274 277 280 283 287 288 297 303 304 303 301 298 297
278 281 281 279 274 276 277 275 276 275 277 272 270 271 274 278 277 280 282 288 295 300 302 306 302 299 296
277 279 279 277 273 271 271 273 278 278 277 275 275 273 271 272 275 278 280 285 290 295 298 301 304 302 301
278 281 280 278 279 282 281 282 281 281 282 284 279 273 270 272 275 273 276 283 291 292 295 298 298 297 299
276 278 279 279 278 280 279 281 281 284 286 285 284 281 275 273 273 275 278 282 285 290 291 292 293 298 300
278 276 275 276 279 281 281 280 280 282 284 285 286 284 281 276 272 274 277 277 281 283 286 288 294 298 298
285 285 285 283 280 276 276 278 280 282 284 287 286 282 276 272 278 275 280 278 282 282 288 295 295 298 297
Height
1586 1586 1587 1587 1588 1588 1588 1588 1588 1588 1587 1587 1587 1587 1587 1586 1586 1585 1585 1584 1584 1583 1583 1582 1581 1580 1579
1584 1585 1586 1586 1586 1587 1587 1586 1586 1585 1585 1584 1584 1584 1584 1584 1583 1583 1582 1582 1581 1580 1579 1578 1577 1577 1576
1583 1584 1584 1584 1584 1584 1585 1585 1584 1583 1582 1582 1582 1581 1581 1581 1580 1580 1579 1578 1577 1577 1576 1575 1573 1573 1572
1582 1583 1583 1583 1583 1582 1582 1583 1582 1581 1580 1579 1579 1578 1578 1577 1577 1576 1575 1574 1574 1573 1572 1571 1569 1569 1568
1581 1581 1581 1581 1581 1580 1579 1579 1579 1578 1577 1576 1575 1575 1574 1573 1572 1572 1571 1571 1570 1569 1567 1567 1565 1565 1563
1578 1579 1579 1579 1578 1577 1577 1576 1576 1575 1574 1574 1573 1571 1570 1570 1568 1568 1567 1566 1566 1565 1563 1562 1561 1560 1559
1575 1575 1575 1575 1575 1574 1573 1573 1572 1572 1571 1568 1569 1567 1567 1566 1565 1564 1563 1562 1561 1560 1559 1558 1556 1555 1553
1571 1571 1571 1571 1570 1570 1569 1568 1567 1567 1567 1564 1564 1563 1564 1562 1562 1560 1558 1557 1556 1555 1554 1553 1551 1550 1548
1567 1566 1566 1565 1565 1565 1564 1564 1562 1562 1564 1562 1560 1559 1559 1558 1557 1556 1554 1553 1552 1551 1549 1548 1545 1543 1541
1562 1562 1561 1560 1560 1560 1560 1559 1558 1557 1560 1559 1556 1556 1553 1552 1551 1551 1550 1548 1547 1546 1544 1542 1540 1536 1534
1558 1557 1556 1556 1555 1555 1555 1555 1553 1552 1554 1554 1552 1551 1550 1547 1546 1546 1545 1543 1542 1540 1539 1536 1534 1532 1528
1553 1552 1551 1551 1551 1551 1550 1550 1549 1547 1547 1548 1546 1546 1543 1541 1540 1540 1539 1538 1536 1534 1532 1530 1528 1527 1525
1547 1546 1546 1546 1545 1545 1544 1543 1542 1541 1540 1540 1539 1539 1537 1534 1533 1532 1532 1531 1530 1528 1526 1524 1521 1520 1517
1542 1541 1540 1540 1539 1538 1537 1536 1534 1533 1533 1532 1532 1531 1528 1527 1526 1524 1524 1523 1523 1522 1519 1516 1515 1513 1511
1536 1535 1534 1533 1532 1532 1531 1529 1527 1526 1524 1524 1523 1523 1521 1520 1518 1517 1516 1515 1515 1514 1512 1509 1507 1506 1504
1529 1528 1527 1526 1525 1524 1524 1522 1520 1519 1517 1517 1517 1515 1512 1509 1510 1509 1508 1507 1507 1507 1505 1501 1499 1498 1496
1521 1520 1519 1518 1518 1516 1516 1515 1513 1512 1511 1510 1509 1508 1505 1502 1502 1501 1500 1500 1500 1498 1497 1495 1491 1489 1487